San Bernardino, CA

2:03 AM PST on December 10, 2019 (GMT -0800)
San Bernardino International

Weather History for KSBD - May, 2019

Change the Weather History Date:

Tuesday, May 7, 2019

  Actual Average Record
Temperature  
Mean Temperature 60 °F -  
Max Temperature 64 °F 78 °F 89 °F (2012)
Min Temperature 57 °F 50 °F 48 °F (2017)
Degree Days  
Heating Degree Days 4    
Growing Degree Days 10 (Base 50)    
Moisture  
Dew Point 49 °F    
Average Humidity 68    
Maximum Humidity 88    
Minimum Humidity 56    
Precipitation  
Precipitation 0.00 in - - ()
Sea Level Pressure  
Sea Level Pressure 30.03 in    
Wind  
Wind Speed 3 mph (West)    
Max Wind Speed 9 mph    
Max Gust Speed -    
Visibility 8 miles    
Events Rain    
Averages and records for this station are not official NWS values.
T = Trace of Precipitation, MM = Missing Value Source: NWS Daily Summary

Daily Weather History Graph

Daily Weather History Graph

Search for Another Location

Airport or City:

Astronomy

May. 07, 2019 Rise Set
Actual Time 5:53 AM PDT 7:37 PM PDT
Civil Twilight 5:26 AM PDT 8:04 PM PDT
Nautical Twilight 4:54 AM PDT 8:37 PM PDT
Astronomical Twilight 4:19 AM PDT 9:12 PM PDT
Moon 8:06 AM PDT (5/7) 10:38 PM PDT (5/7)
Length of Visible Light 14h 37m
Length of Day
13h 43m
Waxing Crescent, 9% of the Moon is Illuminated
May 7
Waxing Crescent
May 11
First Quarter
May 18
Full
May 26
Last Quarter
Jun 3
New

Hourly Weather History & Observations

Time (PDT) Temp. Dew Point Humidity Pressure Visibility Wind Dir Wind Speed Gust Speed Precip Events Conditions
12:00 AM 58.1 °F 47.3 °F 67% 29.98 in 10.0 mi Calm Calm - N/A   Overcast
12:20 AM 58.5 °F 46.9 °F 66% 29.99 in 10.0 mi Calm Calm - N/A   Overcast
12:40 AM 58.6 °F 46.8 °F 65% 29.99 in 10.0 mi Calm Calm - N/A   Overcast
1:00 AM 58.6 °F 46.9 °F 65% 29.99 in 10.0 mi WSW 4.6 mph - N/A   Overcast
1:20 AM 58.5 °F 47.5 °F 67% 29.99 in 10.0 mi WSW 6.9 mph - N/A   Overcast
2:00 AM 58.1 °F 48.7 °F 71% 29.99 in 10.0 mi WSW 8.1 mph - N/A   Overcast
2:20 AM 57.7 °F 49.1 °F 73% 29.99 in 10.0 mi WSW 6.9 mph - N/A   Overcast
2:40 AM 57.6 °F 49.3 °F 74% 29.99 in 10.0 mi Calm Calm - N/A   Overcast
3:00 AM 57.6 °F 49.3 °F 74% 29.99 in 10.0 mi WSW 3.5 mph - N/A   Overcast
3:20 AM 57.6 °F 49.1 °F 73% 29.99 in 10.0 mi West 3.5 mph - N/A   Overcast
3:40 AM 57.6 °F 49.1 °F 73% 30.00 in 10.0 mi West 3.5 mph - N/A   Overcast
4:00 AM 58.1 °F 49.5 °F 73% 30.00 in 10.0 mi West 3.5 mph - N/A   Overcast
4:20 AM 57.6 °F 49.1 °F 73% 30.00 in 10.0 mi Calm Calm - N/A   Overcast
4:40 AM 57.6 °F 48.2 °F 71% 30.01 in 10.0 mi WSW 5.8 mph - N/A   Overcast
5:00 AM 57.7 °F 48.2 °F 70% 30.01 in 10.0 mi WSW 3.5 mph - N/A   Overcast
5:20 AM 57.6 °F 48.2 °F 71% 30.01 in 10.0 mi Calm Calm - N/A Rain Rain
5:40 AM 57.4 °F 50.0 °F 76% 30.02 in 10.0 mi NNE 5.8 mph - N/A   Overcast
6:50 AM 57.2 °F 50.0 °F 77% 30.05 in 3.0 mi North 3.5 mph - N/A   Overcast
7:50 AM 57.2 °F 50.0 °F 77% 30.07 in 3.0 mi West 3.5 mph - N/A   Overcast
8:50 AM 57.2 °F 51.8 °F 82% 30.07 in 1.0 mi Calm Calm - N/A   Overcast
9:47 AM 57.2 °F 53.6 °F 88% 30.08 in 4.0 mi Calm Calm - N/A   Haze
10:50 AM 59.0 °F 51.8 °F 77% 30.07 in 5.0 mi Calm Calm - N/A   Haze
11:50 AM 62.6 °F 50.0 °F 63% 30.08 in 5.0 mi Calm Calm - N/A   Haze
12:50 PM 62.6 °F 48.2 °F 59% 30.08 in 5.0 mi Calm Calm - N/A   Haze
1:50 PM 62.6 °F 48.2 °F 59% 30.08 in 7.0 mi Calm Calm - N/A   Overcast
2:50 PM 64.4 °F 48.2 °F 56% 30.08 in 7.0 mi West 5.8 mph - N/A   Overcast
3:50 PM 64.4 °F 48.2 °F 56% 30.06 in 7.0 mi West 5.8 mph - N/A   Overcast
4:48 PM 64.4 °F 48.2 °F 56% 30.06 in 7.0 mi West 6.9 mph - N/A   Overcast
5:50 PM 62.6 °F 48.2 °F 59% 30.05 in 7.0 mi West 8.1 mph - N/A   Overcast
6:48 PM 62.6 °F 48.2 °F 59% 30.05 in 7.0 mi WNW 5.8 mph - N/A   Overcast
7:49 PM 62.6 °F 48.2 °F 59% 30.05 in 7.0 mi West 5.8 mph - N/A   Overcast
8:48 PM 60.8 °F 46.4 °F 59% 30.05 in 7.0 mi West 5.8 mph - N/A   Overcast
9:40 PM 60.8 °F 47.8 °F 62% 30.05 in 10.0 mi West 6.9 mph - N/A   Overcast
10:00 PM 60.3 °F 47.8 °F 64% 30.06 in 10.0 mi WSW 9.2 mph - N/A   Overcast
10:20 PM 60.1 °F 47.8 °F 64% 30.06 in 10.0 mi West 5.8 mph - N/A   Overcast
10:40 PM 59.9 °F 47.7 °F 64% 30.06 in 10.0 mi WSW 5.8 mph - N/A   Overcast
11:00 PM 59.9 °F 48.0 °F 65% 30.05 in 10.0 mi WSW 6.9 mph - N/A   Overcast
11:20 PM 59.9 °F 48.2 °F 65% 30.05 in 10.0 mi WSW 5.8 mph - N/A   Overcast
11:40 PM 59.4 °F 48.2 °F 67% 30.05 in 10.0 mi WSW 6.9 mph - N/A   Overcast